Princeton, MN

1:43 AM CDT on August 22, 2017 (GMT -0500)
Princeton Municipal

Weather History for KPNM - March, 2014

Change the Weather History Date:

Saturday, March 29, 2014

  Actual Average Record
Temperature  
Mean Temperature 26 °F -  
Max Temperature 42 °F 44 °F 69 °F (2005)
Min Temperature 10 °F 25 °F -4 °F (2001)
Degree Days  
Heating Degree Days 39    
Moisture  
Dew Point 14 °F    
Average Humidity 59    
Maximum Humidity 92    
Minimum Humidity 30    
Precipitation  
Precipitation 0.00 in - - ()
Sea Level Pressure  
Sea Level Pressure 30.19 in    
Wind  
Wind Speed 3 mph (SE)    
Max Wind Speed 13 mph    
Max Gust Speed 18 mph    
Visibility 10 miles    
Events      
Averages and records for this station are not official NWS values.
T = Trace of Precipitation, MM = Missing Value Source: NWS Daily Summary

Daily Weather History Graph

Daily Weather History Graph

Search for Another Location

Airport or City:

Trip Planner

Search our weather history database for the weather conditions in past years. The results will help you decide how hot, cold, wet, or windy it might be!

Date:

Astronomy

Mar. 29, 2014 Rise Set
Actual Time 7:00 AM CDT 7:38 PM CDT
Civil Twilight 6:30 AM CDT 8:08 PM CDT
Nautical Twilight 5:55 AM CDT 8:44 PM CDT
Astronomical Twilight 5:18 AM CDT 9:21 PM CDT
Moon 6:12 AM CDT (3/29) 6:43 PM CDT (3/29)
Length of Visible Light 13h 38m
Length of Day
12h 38m
Waning Crescent, 2% of the Moon is Illuminated
Mar 29
Waning Crescent
Mar 30
New
Apr 7
First Quarter
Apr 15
Full
Apr 22
Last Quarter

Hourly Weather History & Observations

Time (CDT) Temp. Windchill Dew Point Humidity Pressure Visibility Wind Dir Wind Speed Gust Speed Precip Events Conditions
12:13 AM 17.6 °F - 12.2 °F 79% 30.25 in 10.0 mi Calm Calm - N/A   Mostly Cloudy
12:33 AM 17.6 °F - 12.2 °F 79% 30.25 in 10.0 mi Calm Calm - N/A   Scattered Clouds
12:53 AM 17.6 °F - 10.4 °F 73% 30.25 in 10.0 mi Calm Calm - N/A   Clear
1:13 AM 15.8 °F - 12.2 °F 86% 30.25 in 10.0 mi Calm Calm - N/A   Clear
1:33 AM 15.8 °F - 10.4 °F 79% 30.25 in 10.0 mi Calm Calm - N/A   Clear
1:53 AM 15.8 °F - 10.4 °F 79% 30.25 in 10.0 mi Calm Calm - N/A   Clear
2:13 AM 14.0 °F - 10.4 °F 86% 30.24 in 10.0 mi Calm Calm - N/A   Clear
2:33 AM 15.8 °F - 10.4 °F 79% 30.25 in 10.0 mi Calm Calm - N/A   Clear
2:53 AM 15.8 °F - 12.2 °F 86% 30.25 in 10.0 mi Calm Calm - N/A   Clear
3:14 AM 14.0 °F - 10.4 °F 86% 30.24 in 10.0 mi Calm Calm - N/A   Clear
3:33 AM 12.2 °F - 10.4 °F 92% 30.24 in 10.0 mi Calm Calm - N/A   Clear
3:53 AM 12.2 °F - 10.4 °F 92% 30.25 in 10.0 mi Calm Calm - N/A   Clear
4:14 AM 12.2 °F - 10.4 °F 92% 30.25 in 10.0 mi Calm Calm - N/A   Clear
4:33 AM 10.4 °F - 8.6 °F 92% 30.26 in 10.0 mi Calm Calm - N/A   Clear
4:53 AM 12.2 °F - 10.4 °F 92% 30.26 in 10.0 mi Calm Calm - N/A   Mostly Cloudy
5:14 AM 12.2 °F - 10.4 °F 92% 30.26 in 10.0 mi Calm Calm - N/A   Overcast
5:33 AM 14.0 °F - 10.4 °F 86% 30.26 in 10.0 mi Calm Calm - N/A   Overcast
5:53 AM 15.8 °F - 12.2 °F 86% 30.26 in 10.0 mi Calm Calm - N/A   Overcast
6:14 AM 15.8 °F - 10.4 °F 79% 30.26 in 10.0 mi Calm Calm - N/A   Overcast
6:33 AM 14.0 °F - 10.4 °F 86% 30.27 in 10.0 mi Calm Calm - N/A   Overcast
6:53 AM 12.2 °F - 10.4 °F 92% 30.27 in 10.0 mi Calm Calm - N/A   Overcast
7:13 AM 12.2 °F - 8.6 °F 85% 30.26 in 10.0 mi Calm Calm - N/A   Scattered Clouds
7:33 AM 10.4 °F - 8.6 °F 92% 30.26 in 10.0 mi Calm Calm - N/A   Clear
7:53 AM 14.0 °F - 10.4 °F 86% 30.26 in 10.0 mi Calm Calm - N/A   Clear
8:13 AM 14.0 °F - 10.4 °F 86% 30.27 in 10.0 mi Calm Calm - N/A   Clear
8:33 AM 15.8 °F - 12.2 °F 86% 30.27 in 10.0 mi Calm Calm - N/A   Clear
8:53 AM 19.4 °F - 12.2 °F 74% 30.27 in 10.0 mi Calm Calm - N/A   Clear
9:13 AM 24.8 °F - 12.2 °F 59% 30.26 in 7.0 mi Calm Calm - N/A   Clear
9:33 AM 28.4 °F 24.6 °F 8.6 °F 43% 30.27 in 10.0 mi ESE 3.5 mph - N/A   Clear
9:53 AM 28.4 °F - 8.6 °F 43% 30.27 in 10.0 mi Calm Calm - N/A   Clear
10:13 AM 30.2 °F - 8.6 °F 40% 30.27 in 10.0 mi Calm Calm - N/A   Clear
10:33 AM 33.8 °F - 8.6 °F 35% 30.27 in 10.0 mi Calm Calm - N/A   Clear
10:53 AM 33.8 °F - 8.6 °F 35% 30.27 in 10.0 mi Calm Calm - N/A   Clear
11:13 AM 35.6 °F 31.7 °F 8.6 °F 33% 30.26 in 10.0 mi South 4.6 mph - N/A   Clear
11:33 AM 35.6 °F 30.7 °F 8.6 °F 33% 30.26 in 10.0 mi South 5.8 mph - N/A   Clear
11:53 AM 35.6 °F 30.7 °F 8.6 °F 33% 30.26 in 10.0 mi SE 5.8 mph - N/A   Clear
12:13 PM 37.4 °F 34.9 °F 8.6 °F 30% 30.25 in 10.0 mi South 3.5 mph - N/A   Clear
12:33 PM 37.4 °F 32.1 °F 8.6 °F 30% 30.24 in 10.0 mi SSE 6.9 mph - N/A   Clear
12:53 PM 37.4 °F 32.1 °F 10.4 °F 33% 30.23 in 10.0 mi SSE 6.9 mph - N/A   Clear
1:13 PM 37.4 °F 31.4 °F 10.4 °F 33% 30.22 in 10.0 mi South 8.1 mph - N/A   Clear
1:33 PM 37.4 °F 30.3 °F 10.4 °F 33% 30.22 in 10.0 mi SE 10.4 mph - N/A   Clear
1:53 PM 37.4 °F 31.4 °F 10.4 °F 33% 30.21 in 10.0 mi SE 8.1 mph - N/A   Clear
2:13 PM 39.2 °F 35.0 °F 12.2 °F 33% 30.20 in 10.0 mi SSE 5.8 mph - N/A   Clear
2:33 PM 39.2 °F 33.6 °F 10.4 °F 31% 30.19 in 10.0 mi South 8.1 mph - N/A   Clear
2:53 PM 39.2 °F 33.6 °F 12.2 °F 33% 30.18 in 10.0 mi SSE 8.1 mph - N/A   Clear
3:13 PM 39.2 °F 32.5 °F 14.0 °F 36% 30.17 in 10.0 mi SSE 10.4 mph 16.1 mph N/A   Clear
3:33 PM 39.2 °F 33.0 °F 14.0 °F 36% 30.17 in 10.0 mi SE 9.2 mph - N/A   Clear
3:54 PM 41.0 °F 35.2 °F 15.8 °F 36% 30.16 in 10.0 mi SSE 9.2 mph - N/A   Clear
4:13 PM 41.0 °F 34.7 °F 15.8 °F 36% 30.15 in 10.0 mi SSE 10.4 mph - N/A   Clear
4:33 PM 41.0 °F 35.2 °F 15.8 °F 36% 30.14 in 10.0 mi SSE 9.2 mph - N/A   Clear
4:54 PM 41.0 °F 34.3 °F 17.6 °F 39% 30.13 in 10.0 mi SSE 11.5 mph - N/A   Clear
5:13 PM 42.8 °F 36.6 °F 17.6 °F 36% 30.12 in 10.0 mi SE 11.5 mph - N/A   Clear
5:33 PM 42.8 °F 36.2 °F 17.6 °F 36% 30.10 in 10.0 mi SE 12.7 mph 16.1 mph N/A   Clear
5:53 PM 42.8 °F 36.6 °F 17.6 °F 36% 30.10 in 10.0 mi SE 11.5 mph 17.3 mph N/A   Clear
6:13 PM 42.8 °F 37.0 °F 19.4 °F 39% 30.10 in 10.0 mi SSE 10.4 mph 17.3 mph N/A   Clear
6:33 PM 42.8 °F 36.6 °F 19.4 °F 39% 30.09 in 10.0 mi SSE 11.5 mph - N/A   Clear
6:53 PM 41.0 °F 35.2 °F 19.4 °F 42% 30.08 in 10.0 mi SE 9.2 mph - N/A   Clear
7:14 PM 41.0 °F 35.8 °F 19.4 °F 42% 30.09 in 10.0 mi SE 8.1 mph - N/A   Clear
7:33 PM 39.2 °F 33.0 °F 19.4 °F 45% 30.09 in 10.0 mi SSE 9.2 mph - N/A   Clear
7:53 PM 39.2 °F 35.0 °F 19.4 °F 45% 30.08 in 10.0 mi SE 5.8 mph - N/A   Clear
8:14 PM 37.4 °F 32.8 °F 21.2 °F 52% 30.08 in 10.0 mi ESE 5.8 mph - N/A   Clear
8:33 PM 37.4 °F 31.4 °F 21.2 °F 52% 30.06 in 10.0 mi SE 8.1 mph - N/A   Clear
8:53 PM 37.4 °F 31.4 °F 23.0 °F 56% 30.07 in 10.0 mi SE 8.1 mph - N/A   Clear
9:14 PM 37.4 °F 31.4 °F 23.0 °F 56% 30.06 in 10.0 mi SE 8.1 mph - N/A   Clear
9:33 PM 37.4 °F 31.4 °F 24.8 °F 60% 30.06 in 10.0 mi SE 8.1 mph - N/A   Clear
9:53 PM 35.6 °F 29.9 °F 24.8 °F 65% 30.06 in 10.0 mi SE 6.9 mph - N/A   Clear
10:14 PM 37.4 °F 30.8 °F 24.8 °F 60% 30.06 in 10.0 mi SE 9.2 mph - N/A   Clear
10:33 PM 37.4 °F 30.3 °F 24.8 °F 60% 30.05 in 10.0 mi SE 10.4 mph 16.1 mph N/A   Clear
10:53 PM 37.4 °F 30.3 °F 26.6 °F 65% 30.05 in 10.0 mi SE 10.4 mph - N/A   Clear
11:14 PM 37.4 °F 29.8 °F 26.6 °F 65% 30.04 in 10.0 mi SE 11.5 mph - N/A   Clear
11:33 PM 37.4 °F 29.8 °F 26.6 °F 65% 30.04 in 10.0 mi SE 11.5 mph 17.3 mph N/A   Clear
11:53 PM 37.4 °F 29.3 °F 26.6 °F 65% 30.03 in 10.0 mi SE 12.7 mph 18.4 mph N/A   Clear